TimeEST,TemperatureF,Dew PointF,Humidity,Sea Level PressureIn,VisibilityMPH,Wind Direction,Wind SpeedMPH,Gust SpeedMPH,PrecipitationIn,Events,Conditions,WindDirDegrees,DateUTC
12:15 AM,41.0,37.4,87,30.28,10.0,NNE,10.4,-,N/A,,Overcast,20,2012-12-13 05:15:00
12:35 AM,41.0,37.4,87,30.26,10.0,NNE,11.5,16.1,N/A,,Overcast,20,2012-12-13 05:35:00
12:55 AM,41.0,37.4,87,30.27,10.0,North,9.2,16.1,N/A,,Overcast,10,2012-12-13 05:55:00
1:15 AM,41.0,37.4,87,30.27,10.0,North,10.4,16.1,N/A,,Overcast,360,2012-12-13 06:15:00
1:35 AM,41.0,35.6,81,30.30,10.0,NNW,9.2,-,N/A,,Overcast,340,2012-12-13 06:35:00
1:55 AM,39.2,35.6,87,30.30,8.0,NNW,11.5,-,0.05,,Overcast,340,2012-12-13 06:55:00
2:15 AM,41.0,37.4,87,30.29,6.0,North,9.2,-,0.07,,Overcast,360,2012-12-13 07:15:00
2:35 AM,39.2,37.4,93,30.27,4.0,North,12.7,19.6,0.15,,Overcast,10,2012-12-13 07:35:00
2:55 AM,41.0,37.4,87,30.27,5.0,NNE,11.5,20.7,0.21,,Overcast,20,2012-12-13 07:55:00
3:15 AM,41.0,37.4,87,30.26,5.0,NNE,13.8,18.4,0.03,,Overcast,30,2012-12-13 08:15:00
3:35 AM,39.2,37.4,93,30.25,6.0,NE,11.5,-,0.05,,Overcast,40,2012-12-13 08:35:00
3:55 AM,39.2,37.4,93,30.22,9.0,NE,19.6,23.0,0.05,,Overcast,50,2012-12-13 08:55:00
4:15 AM,39.2,37.4,93,30.22,9.0,NE,19.6,25.3,0.02,,Mostly Cloudy,50,2012-12-13 09:15:00
4:35 AM,39.2,37.4,93,30.24,10.0,NNE,8.1,-,0.02,,Overcast,30,2012-12-13 09:35:00
4:55 AM,39.2,37.4,93,30.24,8.0,NNE,10.4,16.1,0.03,,Overcast,30,2012-12-13 09:55:00
5:15 AM,39.2,35.6,87,30.27,9.0,North,9.2,-,0.01,,Overcast,360,2012-12-13 10:15:00
5:35 AM,39.2,35.6,87,30.28,9.0,North,9.2,-,0.01,,Overcast,350,2012-12-13 10:35:00
5:55 AM,39.2,35.6,87,30.29,10.0,North,10.4,16.1,0.01,,Overcast,350,2012-12-13 10:55:00
6:15 AM,39.2,35.6,87,30.30,10.0,North,10.4,-,N/A,,Overcast,350,2012-12-13 11:15:00
6:35 AM,39.2,35.6,87,30.31,7.0,North,12.7,19.6,N/A,,Overcast,350,2012-12-13 11:35:00
6:55 AM,39.2,35.6,87,30.33,3.0,North,11.5,18.4,N/A,,Overcast,350,2012-12-13 11:55:00
7:15 AM,39.2,35.6,87,30.33,3.0,North,11.5,16.1,N/A,,Overcast,360,2012-12-13 12:15:00
7:35 AM,41.0,37.4,87,30.33,4.0,North,12.7,17.3,N/A,,Overcast,360,2012-12-13 12:35:00
7:55 AM,39.2,35.6,87,30.34,7.0,North,10.4,-,N/A,,Overcast,360,2012-12-13 12:55:00
8:15 AM,39.2,35.6,87,30.34,7.0,North,12.7,-,N/A,,Overcast,350,2012-12-13 13:15:00
8:35 AM,39.2,35.6,87,30.35,9.0,North,10.4,-,N/A,,Overcast,360,2012-12-13 13:35:00
8:55 AM,41.0,35.6,81,30.36,10.0,North,9.2,-,N/A,,Overcast,360,2012-12-13 13:55:00
9:15 AM,41.0,35.6,81,30.37,10.0,North,11.5,16.1,N/A,,Overcast,360,2012-12-13 14:15:00
9:35 AM,41.0,37.4,87,30.37,10.0,North,8.1,-,N/A,,Overcast,360,2012-12-13 14:35:00
9:55 AM,41.0,35.6,81,30.38,10.0,North,15.0,19.6,N/A,,Overcast,360,2012-12-13 14:55:00
10:15 AM,42.8,37.4,81,30.38,10.0,North,8.1,-,N/A,,Overcast,10,2012-12-13 15:15:00
10:35 AM,42.8,37.4,81,30.38,10.0,North,9.2,-,N/A,,Overcast,10,2012-12-13 15:35:00
10:55 AM,44.6,37.4,76,30.37,10.0,NE,6.9,-,N/A,,Overcast,40,2012-12-13 15:55:00
11:15 AM,44.6,37.4,76,30.37,10.0,NNE,5.8,-,N/A,,Overcast,20,2012-12-13 16:15:00
11:35 AM,46.4,37.4,71,30.36,10.0,NNE,9.2,-,N/A,,Mostly Cloudy,30,2012-12-13 16:35:00
11:55 AM,48.2,39.2,71,30.35,10.0,North,9.2,-,0.01,,Scattered Clouds,10,2012-12-13 16:55:00
12:15 PM,50.0,41.0,71,30.34,10.0,NNE,11.5,16.1,N/A,,Mostly Cloudy,30,2012-12-13 17:15:00
12:35 PM,50.0,39.2,66,30.33,10.0,NNE,11.5,-,N/A,,Overcast,20,2012-12-13 17:35:00
12:55 PM,50.0,39.2,66,30.33,10.0,NNE,10.4,-,N/A,,Mostly Cloudy,20,2012-12-13 17:55:00
1:15 PM,51.8,39.2,62,30.32,10.0,NNE,8.1,-,N/A,,Mostly Cloudy,30,2012-12-13 18:15:00
1:35 PM,51.8,39.2,62,30.32,10.0,North,9.2,-,N/A,,Overcast,360,2012-12-13 18:35:00
1:55 PM,51.8,39.2,62,30.32,10.0,NNE,6.9,17.3,N/A,,Mostly Cloudy,20,2012-12-13 18:55:00
2:15 PM,53.6,39.2,58,30.31,10.0,North,9.2,16.1,N/A,,Overcast,10,2012-12-13 19:15:00
2:35 PM,53.6,39.2,58,30.31,10.0,North,8.1,-,N/A,,Overcast,10,2012-12-13 19:35:00
2:55 PM,53.6,39.2,58,30.30,9.0,NE,9.2,-,N/A,,Mostly Cloudy,50,2012-12-13 19:55:00
3:15 PM,53.6,39.2,58,30.30,10.0,NE,10.4,-,N/A,,Clear,40,2012-12-13 20:15:00
3:35 PM,53.6,39.2,58,30.30,10.0,NNE,8.1,-,N/A,,Clear,30,2012-12-13 20:35:00
3:55 PM,53.6,39.2,58,30.30,10.0,NNE,9.2,17.3,N/A,,Clear,20,2012-12-13 20:55:00
4:15 PM,53.6,39.2,58,30.30,10.0,North,6.9,-,N/A,,Clear,10,2012-12-13 21:15:00
4:35 PM,51.8,39.2,62,30.30,10.0,NNE,6.9,-,N/A,,Clear,20,2012-12-13 21:35:00
4:55 PM,51.8,39.2,62,30.31,10.0,NNE,5.8,-,N/A,,Clear,20,2012-12-13 21:55:00
5:15 PM,48.2,39.2,71,30.31,10.0,North,4.6,-,N/A,,Clear,360,2012-12-13 22:15:00
5:35 PM,46.4,37.4,71,30.32,10.0,NNW,4.6,-,N/A,,Clear,340,2012-12-13 22:35:00
6:35 PM,44.6,37.4,76,30.33,10.0,North,5.8,-,N/A,,Clear,350,2012-12-13 23:35:00
7:35 PM,42.8,37.4,81,30.34,10.0,North,4.6,-,N/A,,Clear,360,2012-12-14 00:35:00
7:55 PM,42.8,33.8,70,30.35,10.0,North,5.8,-,N/A,,Clear,350,2012-12-14 00:55:00
8:15 PM,42.8,37.4,81,30.35,10.0,North,5.8,-,N/A,,Clear,10,2012-12-14 01:15:00
8:35 PM,42.8,37.4,81,30.35,10.0,North,6.9,-,N/A,,Clear,10,2012-12-14 01:35:00
8:55 PM,42.8,37.4,81,30.34,10.0,NNE,6.9,-,N/A,,Clear,30,2012-12-14 01:55:00
9:15 PM,42.8,35.6,76,30.34,10.0,NNE,5.8,-,N/A,,Clear,30,2012-12-14 02:15:00
9:35 PM,42.8,35.6,76,30.35,10.0,North,5.8,-,N/A,,Clear,10,2012-12-14 02:35:00
9:55 PM,41.0,35.6,81,30.34,10.0,NE,5.8,-,N/A,,Clear,40,2012-12-14 02:55:00
10:15 PM,39.2,35.6,87,30.35,10.0,NNE,4.6,-,N/A,,Clear,20,2012-12-14 03:15:00
10:35 PM,39.2,35.6,87,30.35,10.0,North,3.5,-,N/A,,Clear,10,2012-12-14 03:35:00
10:55 PM,39.2,35.6,87,30.35,10.0,North,4.6,-,N/A,,Clear,10,2012-12-14 03:55:00
11:15 PM,39.2,33.8,81,30.36,10.0,North,5.8,-,N/A,,Clear,350,2012-12-14 04:15:00
11:35 PM,39.2,35.6,87,30.35,10.0,North,5.8,-,N/A,,Clear,360,2012-12-14 04:35:00
11:55 PM,37.4,32.0,81,30.36,10.0,North,5.8,-,N/A,,Clear,350,2012-12-14 04:55:00